Regional Weather Roundup
Issued by NWS

Home | Current Version | Previous Version | Text Only | Print | Product List | Glossary Off
Versions: 1 2 3 4 5 6 7 8 9 10 11 12 13 14 15 16 17 18 19 20 21 22 23 24 25 26 27 28 29 30 31 32 33 34 35 36 37 38 39 40 41 42 43 44 45 46 47 48 49 50

000
ASUS45 KTFX 220404
RWRMT
MONTANA HOURLY WEATHER ROUNDUP
NATIONAL WEATHER SERVICE GREAT FALLS MT
1004 PM MDT SUN SEP 21 2014

NOTE: "FAIR" INDICATES FEW OR NO CLOUDS BELOW 12000 FEET WITH NO
SIGNIFICANT WEATHER AND/OR OBSTRUCTIONS TO VISIBILITY.

* THESE STATIONS ARE NOT UNDER NWS QUALITY CONTROL. THEY DO NOT
   REPORT WEATHER SUCH AS PRECIPITATION OR FOG.

MTZ001>007-043-220500-
WEST OF THE DIVIDE
CITY           SKY/WX    TMP DP  RH WIND       PRES   REMARKS
KALISPELL      PTCLDY    52  46  80 CALM      29.95S
MISSOULA       PTCLDY    64  43  47 N3        29.97R
BUTTE          MOCLDY    61  41  48 CALM      30.14S
* ESSEX        N/A       57  45  64 SE4        N/A
* LINCOLN      N/A       59  40  50 NW1        N/A
* LOOKOUT PASS N/A       64  42  45 N1         N/A
* POLSON       N/A       62  42  48 N/A        N/A
* RONAN APT    MOCLDY    55  45  69 N/A        N/A
* SEELEY LAKE  N/A       56  38  51 E1         N/A
* THOMP F APT  MOCLDY    58  45  62 N/A        N/A
$$

MTZ008-052>055-220500-
SOUTHWEST MONTANA
CITY           SKY/WX    TMP DP  RH WIND       PRES   REMARKS
BOZEMAN        MOCLDY    59  48  67 CALM      30.09F
DILLON         CLOUDY    61  45  56 SW3       30.11S
W YELLOWSTONE  CLOUDY    59  41  51 SW8       30.23S
* THREE FORKS  MOCLDY    57  23  27 N/A        N/A
* BOULDER HILL N/A       60  37  43 S8         N/A
* MONIDA PASS  N/A       57  44  62 SE9G18     N/A
* RAYNOLDS PAS N/A       54  32  43 SW3        N/A
* WHITEHALL    N/A       64  44  48 NE6G12     N/A
* WISE RIVER   N/A       59  35  41 S3         N/A
$$

MTZ009>010-012-014-046-048-049-054-220500-
EAST SLOPES AND CENTRAL MONTANA
CITY           SKY/WX    TMP DP  RH WIND       PRES   REMARKS
CUT BANK       CLEAR     59  41  51 S5        30.03F
GREAT FALLS    PTCLDY    59  46  62 S8        30.02F
HELENA         PTCLDY    63  45  52 CALM      30.04F
MALMSTROM AFB  PTCLDY    59  48  67 S7        30.03F
* CONRAD       PTCLDY    52  45  77 N/A        N/A
* EAST GLACIER N/A       53  45  74 NW8        N/A
* MONARCH      N/A       61  40  46 S13        N/A
* PENDROY      N/A       56  44  64 SW2        N/A
* ROGERS PASS  N/A       56  38  51 NW3        N/A
* SAINT MARY   N/A       51  42  71 SE3        N/A
* SWEET GRASS  N/A       61  42  50 S19        N/A
$$

MTZ011-013-016-021-035-040-045-047-050-051-220500-
NORTH CENTRAL MONTANA
CITY           SKY/WX    TMP DP  RH WIND       PRES   REMARKS
HAVRE          CLEAR     66  45  47 VRB6      30.01F
LEWISTOWN      PTCLDY    59  43  56 SE10      30.09F
* CHESTER      N/A       64  44  48 SE9G15     N/A
* DENTON       N/A       59  41  51 SE11       N/A
* GEYSER       N/A       51  46  83 SW10       N/A
* JUDITH GAP   N/A       57  45  64 S8         N/A
* LOMA         N/A       66  46  49 NE14       N/A
$$

MTZ017>020-022>027-061-062-220500-
NORTHEAST MONTANA
CITY           SKY/WX    TMP DP  RH WIND       PRES   REMARKS
GLASGOW        CLEAR     55  37  51 E10       30.10F
JORDAN         CLEAR     57  39  51 E6        30.11F
SIDNEY         CLEAR     46  36  68 CALM      30.17F
WOLF POINT     CLEAR     54  37  53 CALM      30.13S
* BEAVER HILL  N/A       55  33  43 SE11       N/A
* CIRCLE       N/A       56  40  55 N/A        N/A
* LINDSAY DVD  N/A       52  34  50 E2         N/A
* SACO         N/A       59  41  51 E11        N/A
$$

MTZ028>042-056>058-220500-
SOUTHCENTRAL AND SOUTHEAST MONTANA
CITY           SKY/WX    TMP DP  RH WIND       PRES   REMARKS
BAKER          CLEAR     46  36  68 SE6       30.20F
BILLINGS       PTCLDY    64  43  47 N6        30.08F
LIVINGSTON     MOCLDY    61  45  56 SE8       30.12F
MILES CITY     CLEAR     61  37  41 SE7       30.12F
* LAUREL APT   MOCLDY    64  39  40 N5         N/A
* ROUNDUP APT  PTCLDY    63  43  48 N/A        N/A
* ALZADA       N/A       58  36  44 E6         N/A
* HYSHAM       N/A       65  40  40 E8         N/A
* LAME DEER    N/A       63  40  43 SE9        N/A
* REED POINT   N/A       55  44  67 N/A        N/A
* ROSCOE HILL  N/A       59  40  50 SW4        N/A
$$

REGIONAL REPORTS...DAKOTAS
CITY           SKY/WX    TMP DP  RH WIND       PRES   REMARKS
WILLISTON      CLEAR     45  37  74 CALM      30.16F
DICKINSON      CLEAR     46  37  71 S6        30.19F
BEACH          N/A       46  36  68 S3        30.20S
CROSBY         CLEAR     48  41  77 S8        30.16S
TIOGA          CLEAR     46  36  68 CALM      30.21F
WATFORD CITY   HAZE      46  37  71 CALM      30.16S
BISMARCK       CLEAR     52  45  77 E3        30.21F
GRAND FORKS    CLEAR     50  48  93 S8        30.18F
FARGO          CLEAR     54  48  80 SE6       30.21S
RAPID CITY     PTCLDY    55  37  51 S6        30.25F
$$

REGIONAL REPORTS...WYOMING/IDAHO/WASHINGTON
CITY           SKY/WX    TMP DP  RH WIND       PRES   REMARKS
GILLETTE       MOCLDY    63  39  41 S16       30.21F
SHERIDAN       MOCLDY    63  45  52 S10       30.12F
CODY           CLOUDY   N/A N/A N/A N/A        N/A
YELLOWSTONE LA CLOUDY    52  45  77 CALM      30.33F
SALMON         CLOUDY    64  46  52 CALM      30.00R
SAND POINT     CLEAR     55  50  83 CALM      29.91R
SPOKANE        FAIR      70  39  32 SW3       29.90S

$$



USA.gov is the U.S. government's official web portal to all federal, state and local government web resources and services.